Location: Penton Mewsey
(51.2167°N, 1.5167°W)
Time: 23:10:12
(UTC+00:00)

Cosmos 1340 Rocket - Pass Details

Date: 30 March 2020
Orbit: 529 x 559 km, 81.2° (Epoch: 23 May)

Event Time Altitude Azimuth Distance (km) Brightness Sun altitude
Exits shadow 21:52:18 43° 346° (NNW) 794 3.9 -27.2°
Drops below altitude 10° 21:55:14 10° 7° (N) 1,849 6.0 -27.5°
Sets 21:57:26 0° 11° (N) 2,745 6.9 -27.7°
